Terminal Aerodrome Forecast
Issued by NWS State College, PA

Home | Current Version | Previous Version | Text Only | Print | Product List | Glossary On
Versions: 1 2 3 4 5 6 7 8 9 10 11 12 13 14 15 16 17 18 19 20 21 22 23 24 25 26 27 28 29 30 31 32 33 34 35 36 37 38 39 40 41 42 43 44 45 46 47 48 49 50
000
FTUS41 KCTP 271738
TAFMDT
TAF
KMDT 271738Z 2718/2818 33011G16KT P6SM BKN045 OVC120
     FM280700 32011G17KT 6SM -SHSN BKN022 OVC035
     FM281500 33014G24KT P6SM OVC050=

USA.gov is the U.S. government's official web portal to all federal, state and local government web resources and services.